[TLELIST] Archives

 

[list_settings.list_name] Current TLEs

October 8th 2022 PST

HST 1 20580U 90037B 22281.07000444 .00004658 00000-0 26111-3 0 9995 2 20580 28.4692 142.3744 0002447 165.3688 323.9299 15.10999173583533 ISS (ZARYA) 1 25544U 98067A 22281.40584819 .00015030 00000-0 27241-3 0 9992 2 25544 51.6424 135.6649 0002873 271.6389 146.3251 15.49832252362749 CXO 1 25867U 99040B 22281.75651118 .00000864 00000-0 00000+0 0 9996 2 25867 42.2986 225.6122 8925319 240.2095 0.6067 0.37806992 23389 ____________________________________________________________________ These 2-Line ...Continue Reading

[list_settings.list_name] Current TLEs

October 7th 2022 PST

HST 1 20580U 90037B 22279.92735228 .00004580 00000-0 25667-3 0 9990 2 20580 28.4694 149.9503 0002530 154.0279 227.3879 15.10989026583352 ISS (ZARYA) 1 25544U 98067A 22280.32849466 .00013114 00000-0 23909-3 0 9992 2 25544 51.6419 141.0021 0002941 263.1815 259.8831 15.49792722362576 CXO 1 25867U 99040B 22281.75651118 .00000864 00000-0 00000+0 0 9996 2 25867 42.2986 225.6122 8925319 240.2095 0.6067 0.37806992 23389 ____________________________________________________________________ These 2-Line ...Continue Reading

[list_settings.list_name] Current TLEs

October 6th 2022 PST

HST 1 20580U 90037B 22278.88319064 .00004286 00000-0 23956-3 0 9992 2 20580 28.4693 156.8734 0002584 143.2526 307.1273 15.10979644582931 ISS (ZARYA) 1 25544U 98067A 22279.22836639 .00013819 00000-0 25172-3 0 9993 2 25544 51.6417 146.4500 0003311 259.7001 241.4837 15.49766217362400 CXO 1 25867U 99040B 22279.11171106 .00001010 00000-0 00000-0 0 9992 2 25867 42.3434 225.8023 8920692 240.0893 0.5106 0.37812111 12216 ____________________________________________________________________ These 2-Line ...Continue Reading

[list_settings.list_name] Current TLEs

October 5th 2022 PST

HST 1 20580U 90037B 22277.44588596 .00004511 00000-0 25279-3 0 9992 2 20580 28.4690 166.4035 0002627 128.6335 48.0032 15.10969196582713 ISS (ZARYA) 1 25544U 98067A 22278.26131531 .00047886 00000-0 84884-3 0 9991 2 25544 51.6412 151.2403 0002983 259.3832 242.9688 15.49766435362258 CXO 1 25867U 99040B 22279.11171106 .00001010 00000-0 00000-0 0 9992 2 25867 42.3434 225.8023 8920692 240.0893 0.5106 0.37812111 12216 ____________________________________________________________________ These 2-Line ...Continue Reading

[list_settings.list_name] Current TLEs

October 4th 2022 PST

HST 1 20580U 90037B 22276.45434602 .00004297 00000-0 24035-3 0 9990 2 20580 28.4690 172.9776 0002655 118.7627 53.7180 15.10961481582561 ISS (ZARYA) 1 25544U 98067A 22277.16482100 .00013548 00000-0 24746-3 0 9999 2 25544 51.6425 156.6670 0003069 256.3783 244.5677 15.49707041362080 CXO 1 25867U 99040B 22279.11171106 .00001010 00000-0 00000-0 0 9992 2 25867 42.3434 225.8023 8920692 240.0893 0.5106 0.37812111 12216 ____________________________________________________________________ These 2-Line ...Continue Reading

[list_settings.list_name] Current TLEs

October 3rd 2022 PST

HST 1 20580U 90037B 22276.11854918 .00003893 00000-0 21674-3 0 9996 2 20580 28.4690 175.2041 0002674 115.2890 27.0155 15.10957979582784 ISS (ZARYA) 1 25544U 98067A 22276.19768777 .00013859 00000-0 25318-3 0 9999 2 25544 51.6422 161.4576 0003034 252.8167 249.0294 15.49680637361934 CXO 1 25867U 99040B 22279.11165771 .00001010 00000-0 00000+0 0 9992 2 25867 42.3434 225.8023 8920689 240.0893 0.5036 0.37812187 23376 ____________________________________________________________________ These 2-Line ...Continue Reading

[list_settings.list_name] Current TLEs

October 2nd 2022 PST

HST 1 20580U 90037B 22275.03925275 .00003743 00000-0 20804-3 0 9999 2 20580 28.4690 182.3599 0002696 104.6408 275.2524 15.10950725582613 ISS (ZARYA) 1 25544U 98067A 22275.23091245 .00058352 00000-0 10342-2 0 9999 2 25544 51.6417 166.2459 0003022 250.0408 254.8118 15.49684437361780 CXO 1 25867U 99040B 22276.46843291 .00001072 00000-0 00000+0 0 9995 2 25867 42.3970 226.0198 8918143 239.9523 0.5944 0.37813170 23366 ____________________________________________________________________ These 2-Line ...Continue Reading

[list_settings.list_name] Current TLEs

October 1st 2022 PST

HST 1 20580U 90037B 22273.92571675 .00003588 00000-0 19899-3 0 9995 2 20580 28.4691 189.7432 0002710 92.3604 338.5365 15.10943729582183 ISS (ZARYA) 1 25544U 98067A 22274.19759479 .00014979 00000-0 26577-3 0 9998 2 25544 51.6446 171.3620 0002537 314.8685 180.8010 15.50443271361628 CXO 1 25867U 99040B 22276.46843291 .00001072 00000-0 00000+0 0 9995 2 25867 42.3970 226.0198 8918143 239.9523 0.5944 0.37813170 23366 ____________________________________________________________________ These 2-Line ...Continue Reading

[list_settings.list_name] Current TLEs

September 30th 2022 PST

HST 1 20580U 90037B 22272.86410524 .00003112 00000-0 17126-3 0 9996 2 20580 28.4693 196.7816 0002654 81.5416 323.3837 15.10936136582020 ISS (ZARYA) 1 25544U 98067A 22273.35448010 .00014749 00000-0 26205-3 0 9994 2 25544 51.6446 175.5414 0002613 315.0731 151.6002 15.50416819361495 CXO 1 25867U 99040B 22273.82516906 .00001071 00000-0 00000-0 0 9992 2 25867 42.4697 226.2530 8915571 239.8069 0.6749 0.37811419 12198 ____________________________________________________________________ These 2-Line ...Continue Reading

[list_settings.list_name] Current TLEs

September 29th 2022 PST

HST 1 20580U 90037B 22272.22251126 .00002917 00000-0 15987-3 0 9992 2 20580 28.4694 201.0353 0002655 75.3541 72.7834 15.10932260582192 ISS (ZARYA) 1 25544U 98067A 22272.26549602 .00014767 00000-0 26267-3 0 9990 2 25544 51.6450 180.9409 0002599 316.3019 188.2514 15.50383691361327 CXO 1 25867U 99040B 22273.82516906 .00001071 00000-0 00000-0 0 9992 2 25867 42.4697 226.2530 8915571 239.8069 0.6749 0.37811419 12198 ____________________________________________________________________ These 2-Line ...Continue Reading
  • This mailing list is a public mailing list - anyone may join or leave, at any time.
  • This mailing list is announce-only.

International Space Station (ISS) / Hubble Space Telescope (HST) / Chandra X-Ray Observatory Orbital Data via EMAIL

Privacy Policy:

Private list